Wetterdaten: Samstag, 25.07.2015
Datum Zeit Temp. A. Feuchte A. Luftdruck Regen Wind Richtung Richtung Sonnenschein ET UV Solar Taupunkt Windchill Windben Empfang
25.07.2015 00:00 21,5 C 76 % 1002,9 hPa 0,0 l/m 0,0 km/h (0 Bft) NO 54 0 min 0,000 mm 0,0 UV-I 0 W/m 17,1 C 21,5 C 0,0 km/h (0 Bft) 0,00 %
25.07.2015 00:05 21,5 C 75 % 1002,9 hPa 0,0 l/m 0,0 km/h (0 Bft) NO 48 0 min 0,000 mm 0,0 UV-I 0 W/m 16,9 C 21,5 C 0,0 km/h (0 Bft) 0,00 %
25.07.2015 00:10 21,6 C 75 % 1002,9 hPa 0,0 l/m 0,0 km/h (0 Bft) NO 46 0 min 0,000 mm 0,0 UV-I 0 W/m 17,0 C 21,6 C 0,0 km/h (0 Bft) 0,00 %
25.07.2015 00:15 21,5 C 77 % 1002,8 hPa 0,0 l/m 0,0 km/h (0 Bft) N 354 0 min 0,000 mm 0,0 UV-I 0 W/m 17,3 C 21,5 C 0,0 km/h (0 Bft) 0,00 %
25.07.2015 00:20 21,4 C 76 % 1002,9 hPa 0,0 l/m 0,0 km/h (0 Bft) NO 56 0 min 0,000 mm 0,0 UV-I 0 W/m 17,0 C 21,4 C 0,0 km/h (0 Bft) 0,00 %
25.07.2015 00:25 21,4 C 75 % 1002,8 hPa 0,0 l/m 0,0 km/h (0 Bft) O-NO 57 0 min 0,000 mm 0,0 UV-I 0 W/m 16,8 C 21,4 C 0,0 km/h (0 Bft) 0,00 %
25.07.2015 00:30 21,3 C 75 % 1002,8 hPa 0,0 l/m 0,0 km/h (0 Bft) N-NO 26 0 min 0,000 mm 0,0 UV-I 0 W/m 16,7 C 21,3 C 0,0 km/h (0 Bft) 0,00 %
25.07.2015 00:35 21,3 C 75 % 1002,7 hPa 0,0 l/m 0,0 km/h (0 Bft) N-NO 21 0 min 0,000 mm 0,0 UV-I 0 W/m 16,7 C 21,3 C 0,0 km/h (0 Bft) 0,00 %
25.07.2015 00:40 21,2 C 75 % 1002,9 hPa 0,0 l/m 0,0 km/h (0 Bft) NO 34 0 min 0,000 mm 0,0 UV-I 0 W/m 16,6 C 21,2 C 0,0 km/h (0 Bft) 0,00 %
25.07.2015 00:45 21,1 C 75 % 1002,8 hPa 0,0 l/m 0,0 km/h (0 Bft) NO 34 0 min 0,000 mm 0,0 UV-I 0 W/m 16,5 C 21,1 C 0,0 km/h (0 Bft) 0,00 %
25.07.2015 00:50 21,1 C 76 % 1003,0 hPa 0,0 l/m 0,0 km/h (0 Bft) NO 34 0 min 0,000 mm 0,0 UV-I 0 W/m 16,7 C 21,1 C 0,0 km/h (0 Bft) 0,00 %
25.07.2015 00:55 21,0 C 76 % 1003,0 hPa 0,0 l/m 0,0 km/h (0 Bft) NO 34 0 min 0,000 mm 0,0 UV-I 0 W/m 16,6 C 21,0 C 0,0 km/h (0 Bft) 0,00 %
25.07.2015 01:00 21,0 C 77 % 1002,9 hPa 0,0 l/m 0,0 km/h (0 Bft) NO 34 0 min 0,000 mm 0,0 UV-I 0 W/m 16,8 C 21,0 C 0,0 km/h (0 Bft) 0,00 %
25.07.2015 01:05 20,9 C 78 % 1002,9 hPa 0,0 l/m 0,0 km/h (0 Bft) NO 39 0 min 0,000 mm 0,0 UV-I 0 W/m 16,9 C 20,9 C 0,0 km/h (0 Bft) 0,00 %
25.07.2015 01:10 20,8 C 79 % 1003,0 hPa 0,0 l/m 0,0 km/h (0 Bft) NO 38 0 min 0,000 mm 0,0 UV-I 0 W/m 17,0 C 20,8 C 0,0 km/h (0 Bft) 0,00 %
25.07.2015 01:15 20,7 C 79 % 1002,9 hPa 0,0 l/m 0,0 km/h (0 Bft) NO 50 0 min 0,000 mm 0,0 UV-I 0 W/m 16,9 C 20,7 C 0,0 km/h (0 Bft) 0,00 %
25.07.2015 01:20 20,7 C 79 % 1002,8 hPa 0,0 l/m 0,0 km/h (0 Bft) O 90 0 min 0,000 mm 0,0 UV-I 0 W/m 16,9 C 20,7 C 0,0 km/h (0 Bft) 0,00 %
25.07.2015 01:25 20,7 C 78 % 1002,9 hPa 0,0 l/m 0,0 km/h (0 Bft) NO 49 0 min 0,000 mm 0,0 UV-I 0 W/m 16,7 C 20,7 C 0,0 km/h (0 Bft) 0,00 %
25.07.2015 01:30 20,7 C 78 % 1002,7 hPa 0,0 l/m 0,0 km/h (0 Bft) NO 56 0 min 0,000 mm 0,0 UV-I 0 W/m 16,7 C 20,7 C 0,0 km/h (0 Bft) 0,00 %
25.07.2015 01:35 20,8 C 77 % 1002,6 hPa 0,0 l/m 0,0 km/h (0 Bft) NO 45 0 min 0,000 mm 0,0 UV-I 0 W/m 16,6 C 20,8 C 0,0 km/h (0 Bft) 0,00 %
25.07.2015 01:40 20,9 C 77 % 1002,5 hPa 0,0 l/m 0,0 km/h (0 Bft) NO 41 0 min 0,000 mm 0,0 UV-I 0 W/m 16,7 C 20,9 C 0,0 km/h (0 Bft) 0,00 %
25.07.2015 01:45 20,9 C 77 % 1002,3 hPa 0,0 l/m 0,0 km/h (0 Bft) NO 46 0 min 0,000 mm 0,0 UV-I 0 W/m 16,7 C 20,9 C 0,0 km/h (0 Bft) 0,00 %
25.07.2015 01:50 20,9 C 78 % 1002,5 hPa 0,0 l/m 0,0 km/h (0 Bft) NO 40 0 min 0,000 mm 0,0 UV-I 0 W/m 16,9 C 20,9 C 0,0 km/h (0 Bft) 0,00 %
25.07.2015 01:55 21,0 C 78 % 1002,5 hPa 0,0 l/m 0,0 km/h (0 Bft) NO 42 0 min 0,000 mm 0,0 UV-I 0 W/m 17,0 C 21,0 C 0,0 km/h (0 Bft) 0,00 %
25.07.2015 02:00 21,0 C 78 % 1002,2 hPa 0,0 l/m 0,0 km/h (0 Bft) NO 53 0 min 0,000 mm 0,0 UV-I 0 W/m 17,0 C 21,0 C 0,0 km/h (0 Bft) 0,00 %
25.07.2015 02:05 21,0 C 77 % 1002,2 hPa 0,0 l/m 0,0 km/h (0 Bft) NO 34 0 min 0,000 mm 0,0 UV-I 0 W/m 16,8 C 21,0 C 0,0 km/h (0 Bft) 0,00 %
25.07.2015 02:10 21,0 C 78 % 1002,0 hPa 0,0 l/m 0,0 km/h (0 Bft) NO 38 0 min 0,000 mm 0,0 UV-I 0 W/m 17,0 C 21,0 C 0,0 km/h (0 Bft) 0,00 %
25.07.2015 02:15 20,9 C 79 % 1002,0 hPa 0,0 l/m 0,0 km/h (0 Bft) NO 41 0 min 0,000 mm 0,0 UV-I 0 W/m 17,1 C 20,9 C 0,0 km/h (0 Bft) 0,00 %
25.07.2015 02:20 20,9 C 79 % 1002,1 hPa 0,0 l/m 0,0 km/h (0 Bft) O 83 0 min 0,000 mm 0,0 UV-I 0 W/m 17,1 C 20,9 C 0,0 km/h (0 Bft) 0,00 %
25.07.2015 02:25 20,8 C 77 % 1001,9 hPa 0,0 l/m 0,0 km/h (0 Bft) NO 46 0 min 0,000 mm 0,0 UV-I 0 W/m 16,6 C 20,8 C 0,0 km/h (0 Bft) 0,00 %
25.07.2015 02:30 20,8 C 75 % 1001,9 hPa 0,0 l/m 0,0 km/h (0 Bft) NO 43 0 min 0,000 mm 0,0 UV-I 0 W/m 16,2 C 20,8 C 0,0 km/h (0 Bft) 0,00 %
25.07.2015 02:35 20,8 C 76 % 1001,9 hPa 0,0 l/m 0,0 km/h (0 Bft) NO 52 0 min 0,000 mm 0,0 UV-I 0 W/m 16,4 C 20,8 C 0,0 km/h (0 Bft) 0,00 %
25.07.2015 02:40 20,8 C 77 % 1001,9 hPa 0,0 l/m 0,0 km/h (0 Bft) NO 40 0 min 0,000 mm 0,0 UV-I 0 W/m 16,6 C 20,8 C 0,0 km/h (0 Bft) 0,00 %
25.07.2015 02:45 20,8 C 79 % 1001,8 hPa 0,0 l/m 0,0 km/h (0 Bft) N-NO 32 0 min 0,000 mm 0,0 UV-I 0 W/m 17,0 C 20,8 C 0,0 km/h (0 Bft) 0,00 %
25.07.2015 02:50 20,7 C 80 % 1002,0 hPa 0,0 l/m 0,0 km/h (0 Bft) N 4 0 min 0,000 mm 0,0 UV-I 0 W/m 17,1 C 20,7 C 0,0 km/h (0 Bft) 0,00 %
25.07.2015 02:55 20,7 C 80 % 1001,9 hPa 0,0 l/m 0,0 km/h (0 Bft) NO 50 0 min 0,000 mm 0,0 UV-I 0 W/m 17,1 C 20,7 C 0,0 km/h (0 Bft) 0,00 %
25.07.2015 03:00 20,6 C 79 % 1002,1 hPa 0,0 l/m 0,0 km/h (0 Bft) W-NW 293 0 min 0,000 mm 0,0 UV-I 0 W/m 16,8 C 20,6 C 0,0 km/h (0 Bft) 0,00 %
25.07.2015 03:05 20,6 C 79 % 1001,9 hPa 0,0 l/m 0,0 km/h (0 Bft) NO 36 0 min 0,000 mm 0,0 UV-I 0 W/m 16,8 C 20,6 C 0,0 km/h (0 Bft) 0,00 %
25.07.2015 03:10 20,6 C 79 % 1002,1 hPa 0,0 l/m 0,0 km/h (0 Bft) NO 44 0 min 0,000 mm 0,0 UV-I 0 W/m 16,8 C 20,6 C 0,0 km/h (0 Bft) 0,00 %
25.07.2015 03:15 20,6 C 79 % 1002,2 hPa 0,0 l/m 0,0 km/h (0 Bft) N 8 0 min 0,000 mm 0,0 UV-I 0 W/m 16,8 C 20,6 C 0,0 km/h (0 Bft) 0,00 %
25.07.2015 03:20 20,7 C 79 % 1002,2 hPa 0,0 l/m 0,0 km/h (0 Bft) NO 41 0 min 0,000 mm 0,0 UV-I 0 W/m 16,9 C 20,7 C 0,0 km/h (0 Bft) 0,00 %
25.07.2015 03:25 20,7 C 79 % 1003,0 hPa 0,0 l/m 13,3 km/h (3 Bft) W-SW 254 0 min 0,000 mm 0,0 UV-I 0 W/m 16,9 C 18,5 C 15,8 km/h (3 Bft) 0,00 %
25.07.2015 03:30 20,9 C 79 % 1003,0 hPa 0,0 l/m 6,5 km/h (2 Bft) W-SW 253 0 min 0,000 mm 0,0 UV-I 0 W/m 17,1 C 20,9 C 11,9 km/h (2 Bft) 0,00 %
25.07.2015 03:35 21,0 C 79 % 1002,7 hPa 0,0 l/m 0,0 km/h (0 Bft) N 354 0 min 0,000 mm 0,0 UV-I 0 W/m 17,2 C 21,0 C 0,0 km/h (0 Bft) 0,00 %
25.07.2015 03:40 21,1 C 80 % 1002,8 hPa 0,0 l/m 0,7 km/h (0 Bft) N 349 0 min 0,000 mm 0,0 UV-I 0 W/m 17,5 C 21,1 C 4,0 km/h (1 Bft) 0,00 %
25.07.2015 03:45 21,0 C 80 % 1003,3 hPa 0,0 l/m 4,3 km/h (1 Bft) W-SW 255 0 min 0,000 mm 0,0 UV-I 0 W/m 17,4 C 21,0 C 7,9 km/h (2 Bft) 0,00 %
25.07.2015 03:50 21,0 C 82 % 1003,3 hPa 0,0 l/m 1,8 km/h (1 Bft) N-NW 330 0 min 0,000 mm 0,0 UV-I 0 W/m 17,8 C 21,0 C 4,0 km/h (1 Bft) 0,00 %
25.07.2015 03:55 20,9 C 82 % 1003,6 hPa 0,0 l/m 0,4 km/h (0 Bft) N 351 0 min 0,000 mm 0,0 UV-I 0 W/m 17,7 C 20,9 C 4,0 km/h (1 Bft) 0,00 %
25.07.2015 04:00 20,8 C 82 % 1003,6 hPa 0,0 l/m 0,0 km/h (0 Bft) NO 50 0 min 0,000 mm 0,0 UV-I 0 W/m 17,6 C 20,8 C 0,0 km/h (0 Bft) 0,00 %
25.07.2015 04:05 20,7 C 82 % 1003,7 hPa 0,0 l/m 0,4 km/h (0 Bft) W-NW 287 0 min 0,000 mm 0,0 UV-I 0 W/m 17,5 C 20,7 C 4,0 km/h (1 Bft) 0,00 %
25.07.2015 04:10 20,6 C 82 % 1003,7 hPa 0,0 l/m 0,0 km/h (0 Bft) NO 39 0 min 0,000 mm 0,0 UV-I 0 W/m 17,4 C 20,6 C 0,0 km/h (0 Bft) 0,00 %
25.07.2015 04:15 20,6 C 81 % 1003,7 hPa 0,0 l/m 0,0 km/h (0 Bft) NO 55 0 min 0,000 mm 0,0 UV-I 0 W/m 17,2 C 20,6 C 0,0 km/h (0 Bft) 0,00 %
25.07.2015 04:20 20,6 C 81 % 1004,0 hPa 0,0 l/m 0,0 km/h (0 Bft) N 353 0 min 0,000 mm 0,0 UV-I 0 W/m 17,2 C 20,6 C 0,0 km/h (0 Bft) 0,00 %
25.07.2015 04:25 20,5 C 80 % 1003,9 hPa 0,0 l/m 2,9 km/h (1 Bft) W-SW 245 0 min 0,000 mm 0,0 UV-I 0 W/m 16,9 C 20,5 C 4,0 km/h (1 Bft) 0,00 %
25.07.2015 04:30 20,5 C 80 % 1003,9 hPa 0,0 l/m 0,0 km/h (0 Bft) NW 326 0 min 0,000 mm 0,0 UV-I 0 W/m 16,9 C 20,5 C 0,0 km/h (0 Bft) 0,00 %
25.07.2015 04:35 20,5 C 79 % 1003,8 hPa 0,0 l/m 0,0 km/h (0 Bft) W-SW 246 0 min 0,000 mm 0,0 UV-I 0 W/m 16,7 C 20,5 C 0,0 km/h (0 Bft) 0,00 %
25.07.2015 04:40 20,5 C 79 % 1003,8 hPa 0,0 l/m 0,0 km/h (0 Bft) N 359 0 min 0,000 mm 0,0 UV-I 0 W/m 16,7 C 20,5 C 0,0 km/h (0 Bft) 0,00 %
25.07.2015 04:45 20,4 C 77 % 1003,9 hPa 0,0 l/m 0,0 km/h (0 Bft) N-NO 33 0 min 0,000 mm 0,0 UV-I 0 W/m 16,2 C 20,4 C 0,0 km/h (0 Bft) 0,00 %
25.07.2015 04:50 20,4 C 75 % 1003,8 hPa 0,0 l/m 0,0 km/h (0 Bft) NO 48 0 min 0,000 mm 0,0 UV-I 0 W/m 15,8 C 20,4 C 0,0 km/h (0 Bft) 0,00 %
25.07.2015 04:55 20,3 C 73 % 1003,8 hPa 0,0 l/m 0,0 km/h (0 Bft) N 359 0 min 0,000 mm 0,0 UV-I 0 W/m 15,3 C 20,3 C 0,0 km/h (0 Bft) 0,00 %
25.07.2015 05:00 20,2 C 71 % 1003,9 hPa 0,0 l/m 1,8 km/h (1 Bft) O-NO 62 0 min 0,000 mm 0,0 UV-I 0 W/m 14,8 C 20,2 C 4,0 km/h (1 Bft) 0,00 %
25.07.2015 05:05 20,2 C 70 % 1004,0 hPa 0,0 l/m 0,4 km/h (0 Bft) N 351 0 min 0,000 mm 0,0 UV-I 0 W/m 14,5 C 20,2 C 4,0 km/h (1 Bft) 0,00 %
25.07.2015 05:10 20,2 C 70 % 1003,8 hPa 0,0 l/m 0,0 km/h (0 Bft) O-NO 73 0 min 0,000 mm 0,0 UV-I 0 W/m 14,5 C 20,2 C 0,0 km/h (0 Bft) 0,00 %
25.07.2015 05:15 20,3 C 70 % 1003,8 hPa 0,0 l/m 0,0 km/h (0 Bft) N 357 0 min 0,000 mm 0,0 UV-I 0 W/m 14,6 C 20,3 C 0,0 km/h (0 Bft) 0,00 %
25.07.2015 05:20 20,3 C 70 % 1003,9 hPa 0,0 l/m 0,0 km/h (0 Bft) N 356 0 min 0,000 mm 0,0 UV-I 0 W/m 14,6 C 20,3 C 0,0 km/h (0 Bft) 0,00 %
25.07.2015 05:25 20,3 C 70 % 1004,1 hPa 0,0 l/m 0,0 km/h (0 Bft) NO 43 0 min 0,000 mm 0,0 UV-I 0 W/m 14,6 C 20,3 C 0,0 km/h (0 Bft) 0,00 %
25.07.2015 05:30 20,3 C 69 % 1004,0 hPa 0,0 l/m 0,0 km/h (0 Bft) NO 52 0 min 0,000 mm 0,0 UV-I 0 W/m 14,4 C 20,3 C 0,0 km/h (0 Bft) 0,00 %
25.07.2015 05:35 20,3 C 69 % 1003,9 hPa 0,0 l/m 0,4 km/h (0 Bft) W-NW 295 0 min 0,000 mm 0,0 UV-I 0 W/m 14,4 C 20,3 C 4,0 km/h (1 Bft) 0,00 %
25.07.2015 05:40 20,4 C 69 % 1004,1 hPa 0,0 l/m 0,0 km/h (0 Bft) N 353 0 min 0,000 mm 0,0 UV-I 0 W/m 14,5 C 20,4 C 0,0 km/h (0 Bft) 0,00 %
25.07.2015 05:45 20,4 C 69 % 1004,0 hPa 0,0 l/m 1,8 km/h (1 Bft) N-NW 348 0 min 0,000 mm 0,0 UV-I 0 W/m 14,5 C 20,4 C 4,0 km/h (1 Bft) 0,00 %
25.07.2015 05:50 20,5 C 68 % 1003,9 hPa 0,0 l/m 2,9 km/h (1 Bft) W-NW 293 0 min 0,000 mm 0,0 UV-I 0 W/m 14,4 C 20,5 C 4,0 km/h (1 Bft) 0,00 %
25.07.2015 05:55 20,5 C 67 % 1003,8 hPa 0,0 l/m 2,9 km/h (1 Bft) W-SW 256 0 min 0,000 mm 0,0 UV-I 0 W/m 14,2 C 20,5 C 4,0 km/h (1 Bft) 0,00 %
25.07.2015 06:00 20,6 C 66 % 1003,9 hPa 0,0 l/m 0,0 km/h (0 Bft) N 358 0 min 0,000 mm 0,0 UV-I 1 W/m 14,0 C 20,6 C 0,0 km/h (0 Bft) 0,00 %
25.07.2015 06:05 20,6 C 66 % 1004,1 hPa 0,0 l/m 0,0 km/h (0 Bft) NO 37 0 min 0,000 mm 0,0 UV-I 2 W/m 14,0 C 20,6 C 0,0 km/h (0 Bft) 0,00 %
25.07.2015 06:10 20,5 C 67 % 1004,0 hPa 0,0 l/m 0,7 km/h (0 Bft) NO 39 0 min 0,000 mm 0,0 UV-I 4 W/m 14,2 C 20,5 C 4,0 km/h (1 Bft) 0,00 %
25.07.2015 06:15 20,4 C 67 % 1004,0 hPa 0,0 l/m 0,0 km/h (0 Bft) N-NO 28 0 min 0,000 mm 0,0 UV-I 6 W/m 14,1 C 20,4 C 0,0 km/h (0 Bft) 0,00 %
25.07.2015 06:20 20,4 C 67 % 1003,8 hPa 0,0 l/m 3,2 km/h (1 Bft) W-SW 246 0 min 0,000 mm 0,0 UV-I 16 W/m 14,1 C 20,4 C 4,0 km/h (1 Bft) 0,00 %
25.07.2015 06:25 20,4 C 66 % 1003,8 hPa 0,0 l/m 2,2 km/h (1 Bft) W 269 0 min 0,000 mm 0,0 UV-I 18 W/m 13,8 C 20,4 C 4,0 km/h (1 Bft) 0,00 %
25.07.2015 06:30 20,4 C 66 % 1004,0 hPa 0,0 l/m 0,0 km/h (0 Bft) NW 311 0 min 0,000 mm 0,0 UV-I 19 W/m 13,8 C 20,4 C 0,0 km/h (0 Bft) 0,00 %
25.07.2015 06:35 20,5 C 67 % 1003,9 hPa 0,0 l/m 0,0 km/h (0 Bft) O-NO 67 0 min 0,000 mm 0,0 UV-I 21 W/m 14,2 C 20,5 C 0,0 km/h (0 Bft) 0,00 %
25.07.2015 06:40 20,4 C 67 % 1004,0 hPa 0,0 l/m 0,0 km/h (0 Bft) N-NW 333 0 min 0,000 mm 0,0 UV-I 26 W/m 14,1 C 20,4 C 0,0 km/h (0 Bft) 0,00 %
25.07.2015 06:45 20,4 C 67 % 1004,0 hPa 0,0 l/m 1,8 km/h (1 Bft) NW 311 0 min 0,000 mm 0,0 UV-I 31 W/m 14,1 C 20,4 C 4,0 km/h (1 Bft) 0,00 %
25.07.2015 06:50 20,4 C 66 % 1003,9 hPa 0,0 l/m 0,4 km/h (0 Bft) O-SO 105 0 min 0,000 mm 0,0 UV-I 41 W/m 13,8 C 20,4 C 4,0 km/h (1 Bft) 0,00 %
25.07.2015 06:55 20,5 C 65 % 1004,1 hPa 0,0 l/m 0,7 km/h (0 Bft) N-NW 335 0 min 0,000 mm 0,0 UV-I 50 W/m 13,7 C 20,5 C 4,0 km/h (1 Bft) 0,00 %
25.07.2015 07:00 20,6 C 64 % 1004,2 hPa 0,0 l/m 0,7 km/h (0 Bft) W-SW 256 0 min 0,000 mm 0,0 UV-I 64 W/m 13,5 C 20,6 C 4,0 km/h (1 Bft) 0,00 %
25.07.2015 07:05 20,8 C 62 % 1004,1 hPa 0,0 l/m 0,0 km/h (0 Bft) NO 54 0 min 0,000 mm 0,0 UV-I 80 W/m 13,2 C 20,8 C 0,0 km/h (0 Bft) 0,00 %
25.07.2015 07:10 21,0 C 63 % 1004,2 hPa 0,0 l/m 0,0 km/h (0 Bft) W-NW 301 0 min 0,000 mm 0,0 UV-I 91 W/m 13,7 C 21,0 C 0,0 km/h (0 Bft) 0,00 %
25.07.2015 07:15 21,2 C 62 % 1004,3 hPa 0,0 l/m 0,0 km/h (0 Bft) N-NO 32 0 min 0,000 mm 0,0 UV-I 96 W/m 13,6 C 21,2 C 0,0 km/h (0 Bft) 0,00 %
25.07.2015 07:20 21,3 C 62 % 1004,5 hPa 0,0 l/m 0,7 km/h (0 Bft) SW 222 0 min 0,000 mm 0,0 UV-I 86 W/m 13,7 C 21,3 C 4,0 km/h (1 Bft) 0,00 %
25.07.2015 07:25 21,3 C 62 % 1004,5 hPa 0,0 l/m 0,0 km/h (0 Bft) W-SW 248 0 min 0,000 mm 0,0 UV-I 73 W/m 13,7 C 21,3 C 0,0 km/h (0 Bft) 0,00 %
25.07.2015 07:30 21,4 C 62 % 1004,8 hPa 0,0 l/m 0,4 km/h (0 Bft) N-NW 328 0 min 0,000 mm 0,0 UV-I 83 W/m 13,8 C 21,4 C 4,0 km/h (1 Bft) 0,00 %
25.07.2015 07:35 21,4 C 61 % 1004,8 hPa 0,0 l/m 2,2 km/h (1 Bft) NW 304 0 min 0,000 mm 0,0 UV-I 87 W/m 13,6 C 21,4 C 4,0 km/h (1 Bft) 0,00 %
25.07.2015 07:40 21,5 C 61 % 1005,1 hPa 0,0 l/m 2,2 km/h (1 Bft) N-NW 328 0 min 0,000 mm 1,0 UV-I 144 W/m 13,7 C 21,5 C 4,0 km/h (1 Bft) 0,00 %
25.07.2015 07:45 21,5 C 62 % 1005,0 hPa 0,0 l/m 2,9 km/h (1 Bft) N-NW 330 0 min 0,000 mm 1,0 UV-I 151 W/m 13,9 C 21,5 C 4,0 km/h (1 Bft) 0,00 %
25.07.2015 07:50 21,7 C 61 % 1004,9 hPa 0,0 l/m 0,4 km/h (0 Bft) N-NO 31 0 min 0,000 mm 1,0 UV-I 171 W/m 13,8 C 21,7 C 4,0 km/h (1 Bft) 0,00 %
25.07.2015 07:55 21,9 C 62 % 1005,1 hPa 0,0 l/m 0,4 km/h (0 Bft) O-SO 104 0 min 0,000 mm 1,0 UV-I 174 W/m 14,3 C 21,9 C 4,0 km/h (1 Bft) 0,00 %
25.07.2015 08:00 22,0 C 62 % 1005,2 hPa 0,0 l/m 0,0 km/h (0 Bft) N-NO 25 0 min 0,000 mm 1,0 UV-I 162 W/m 14,4 C 22,0 C 0,0 km/h (0 Bft) 0,00 %
25.07.2015 08:05 22,1 C 61 % 1005,2 hPa 0,0 l/m 5,8 km/h (2 Bft) SW 229 0 min 0,000 mm 1,0 UV-I 152 W/m 14,2 C 22,1 C 7,9 km/h (2 Bft) 0,00 %
25.07.2015 08:10 22,2 C 60 % 1005,2 hPa 0,0 l/m 4,7 km/h (1 Bft) W-NW 293 0 min 0,000 mm 1,0 UV-I 107 W/m 14,1 C 22,2 C 7,9 km/h (2 Bft) 0,00 %
25.07.2015 08:15 22,1 C 61 % 1005,4 hPa 0,0 l/m 0,7 km/h (0 Bft) S 179 0 min 0,000 mm 1,0 UV-I 100 W/m 14,2 C 22,1 C 4,0 km/h (1 Bft) 0,00 %
25.07.2015 08:20 22,0 C 59 % 1005,3 hPa 0,0 l/m 5,4 km/h (1 Bft) NW 318 0 min 0,000 mm 1,0 UV-I 97 W/m 13,6 C 22,0 C 11,9 km/h (2 Bft) 0,00 %
25.07.2015 08:25 21,9 C 60 % 1005,4 hPa 0,0 l/m 0,0 km/h (0 Bft) NO 45 0 min 0,000 mm 1,0 UV-I 99 W/m 13,8 C 21,9 C 0,0 km/h (0 Bft) 0,00 %
25.07.2015 08:30 21,8 C 61 % 1005,5 hPa 0,0 l/m 4,7 km/h (1 Bft) S-SW 205 0 min 0,000 mm 1,0 UV-I 104 W/m 13,9 C 21,8 C 7,9 km/h (2 Bft) 0,00 %
25.07.2015 08:35 21,8 C 61 % 1005,5 hPa 0,0 l/m 4,0 km/h (1 Bft) W-SW 256 0 min 0,000 mm 1,0 UV-I 118 W/m 13,9 C 21,8 C 4,0 km/h (1 Bft) 0,00 %
25.07.2015 08:40 21,7 C 61 % 1005,8 hPa 0,0 l/m 6,8 km/h (2 Bft) W 262 0 min 0,000 mm 1,0 UV-I 140 W/m 13,8 C 21,6 C 7,9 km/h (2 Bft) 0,00 %
25.07.2015 08:45 21,6 C 62 % 1005,5 hPa 0,0 l/m 0,0 km/h (0 Bft) N-NO 25 0 min 0,000 mm 1,0 UV-I 146 W/m 14,0 C 21,6 C 0,0 km/h (0 Bft) 0,00 %
25.07.2015 08:50 21,6 C 62 % 1005,6 hPa 0,0 l/m 4,7 km/h (1 Bft) W-SW 256 0 min 0,000 mm 1,0 UV-I 146 W/m 14,0 C 21,6 C 7,9 km/h (2 Bft) 0,00 %
25.07.2015 08:55 21,7 C 63 % 1005,8 hPa 0,0 l/m 0,4 km/h (0 Bft) N 356 0 min 0,000 mm 1,0 UV-I 158 W/m 14,3 C 21,7 C 4,0 km/h (1 Bft) 0,00 %
25.07.2015 09:00 21,8 C 62 % 1005,9 hPa 0,0 l/m 1,8 km/h (1 Bft) W 266 0 min 0,000 mm 1,0 UV-I 155 W/m 14,2 C 21,8 C 4,0 km/h (1 Bft) 0,00 %
25.07.2015 09:05 21,9 C 62 % 1005,7 hPa 0,0 l/m 0,0 km/h (0 Bft) W-NW 302 0 min 0,000 mm 1,0 UV-I 177 W/m 14,3 C 21,9 C 0,0 km/h (0 Bft) 0,00 %
25.07.2015 09:10 21,9 C 62 % 1005,9 hPa 0,0 l/m 7,2 km/h (2 Bft) W-SW 244 0 min 0,000 mm 1,0 UV-I 187 W/m 14,3 C 21,6 C 11,9 km/h (2 Bft) 0,00 %
25.07.2015 09:15 21,9 C 62 % 1005,7 hPa 0,0 l/m 0,4 km/h (0 Bft) N 353 0 min 0,000 mm 1,0 UV-I 198 W/m 14,3 C 21,9 C 4,0 km/h (1 Bft) 0,00 %
25.07.2015 09:20 22,0 C 61 % 1006,0 hPa 0,0 l/m 4,7 km/h (1 Bft) W-NW 295 0 min 0,000 mm 1,0 UV-I 227 W/m 14,1 C 22,0 C 7,9 km/h (2 Bft) 0,00 %
25.07.2015 09:25 22,0 C 61 % 1005,8 hPa 0,0 l/m 1,8 km/h (1 Bft) W-NW 295 0 min 0,000 mm 1,0 UV-I 247 W/m 14,1 C 22,0 C 4,0 km/h (1 Bft) 0,00 %
25.07.2015 09:30 22,0 C 61 % 1005,7 hPa 0,0 l/m 0,0 km/h (0 Bft) N 355 0 min 0,000 mm 1,0 UV-I 258 W/m 14,1 C 22,0 C 0,0 km/h (0 Bft) 0,00 %
25.07.2015 09:35 22,1 C 63 % 1005,8 hPa 0,0 l/m 0,7 km/h (0 Bft) N-NO 28 0 min 0,000 mm 1,0 UV-I 273 W/m 14,7 C 22,1 C 4,0 km/h (1 Bft) 0,00 %
25.07.2015 09:40 22,3 C 61 % 1005,8 hPa 0,0 l/m 0,0 km/h (0 Bft) NO 42 0 min 0,000 mm 1,0 UV-I 262 W/m 14,4 C 22,3 C 0,0 km/h (0 Bft) 0,00 %
25.07.2015 09:45 22,6 C 62 % 1005,5 hPa 0,0 l/m 0,0 km/h (0 Bft) NO 39 0 min 0,000 mm 1,0 UV-I 258 W/m 14,9 C 22,6 C 0,0 km/h (0 Bft) 0,00 %
25.07.2015 09:50 22,8 C 59 % 1005,7 hPa 0,0 l/m 0,0 km/h (0 Bft) O-NO 68 0 min 0,000 mm 1,0 UV-I 249 W/m 14,4 C 22,8 C 0,0 km/h (0 Bft) 0,00 %
25.07.2015 09:55 23,1 C 58 % 1005,7 hPa 0,0 l/m 1,8 km/h (1 Bft) NW 308 0 min 0,000 mm 1,0 UV-I 291 W/m 14,4 C 23,1 C 4,0 km/h (1 Bft) 0,00 %
25.07.2015 10:00 23,3 C 57 % 1005,5 hPa 0,0 l/m 0,0 km/h (0 Bft) NO 36 0 min 0,000 mm 1,0 UV-I 284 W/m 14,3 C 23,3 C 0,0 km/h (0 Bft) 0,00 %
25.07.2015 10:05 23,4 C 58 % 1005,6 hPa 0,0 l/m 0,0 km/h (0 Bft) NO 44 0 min 0,000 mm 1,0 UV-I 292 W/m 14,7 C 23,4 C 0,0 km/h (0 Bft) 0,00 %
25.07.2015 10:10 23,4 C 57 % 1005,5 hPa 0,0 l/m 1,4 km/h (1 Bft) O-NO 67 0 min 0,000 mm 1,0 UV-I 304 W/m 14,4 C 23,4 C 4,0 km/h (1 Bft) 0,00 %
25.07.2015 10:15 23,5 C 56 % 1005,5 hPa 0,0 l/m 2,9 km/h (1 Bft) W-NW 285 0 min 0,000 mm 1,0 UV-I 302 W/m 14,2 C 23,5 C 4,0 km/h (1 Bft) 0,00 %
25.07.2015 10:20 23,5 C 56 % 1005,6 hPa 0,0 l/m 0,4 km/h (0 Bft) NO 50 0 min 0,000 mm 1,0 UV-I 302 W/m 14,2 C 23,5 C 4,0 km/h (1 Bft) 0,00 %
25.07.2015 10:25 23,6 C 56 % 1005,4 hPa 0,0 l/m 1,8 km/h (1 Bft) O 101 0 min 0,000 mm 1,0 UV-I 301 W/m 14,3 C 23,6 C 4,0 km/h (1 Bft) 0,00 %
25.07.2015 10:30 23,7 C 55 % 1005,6 hPa 0,0 l/m 0,0 km/h (0 Bft) NO 40 0 min 0,000 mm 2,0 UV-I 300 W/m 14,1 C 23,7 C 0,0 km/h (0 Bft) 0,00 %
25.07.2015 10:35 23,9 C 56 % 1005,5 hPa 0,0 l/m 0,0 km/h (0 Bft) N-NO 33 0 min 0,000 mm 1,0 UV-I 266 W/m 14,6 C 23,9 C 0,0 km/h (0 Bft) 0,00 %
25.07.2015 10:40 24,0 C 56 % 1005,3 hPa 0,0 l/m 0,0 km/h (0 Bft) N-NO 31 0 min 0,000 mm 1,0 UV-I 266 W/m 14,7 C 24,0 C 0,0 km/h (0 Bft) 0,00 %
25.07.2015 10:45 24,2 C 55 % 1005,1 hPa 0,0 l/m 2,9 km/h (1 Bft) NW 314 0 min 0,000 mm 1,0 UV-I 292 W/m 14,6 C 24,2 C 7,9 km/h (2 Bft) 0,00 %
25.07.2015 10:50 24,3 C 54 % 1005,3 hPa 0,0 l/m 0,4 km/h (0 Bft) N-NO 16 0 min 0,000 mm 1,0 UV-I 318 W/m 14,4 C 24,3 C 4,0 km/h (1 Bft) 0,00 %
25.07.2015 10:55 24,4 C 54 % 1005,3 hPa 0,0 l/m 0,0 km/h (0 Bft) NO 42 0 min 0,000 mm 1,0 UV-I 305 W/m 14,5 C 24,4 C 0,0 km/h (0 Bft) 0,00 %
25.07.2015 11:00 24,5 C 54 % 1005,3 hPa 0,0 l/m 0,0 km/h (0 Bft) NO 44 0 min 0,000 mm 1,0 UV-I 309 W/m 14,6 C 24,5 C 0,0 km/h (0 Bft) 0,00 %
25.07.2015 11:05 24,6 C 52 % 1005,2 hPa 0,0 l/m 0,0 km/h (0 Bft) NO 34 0 min 0,000 mm 1,0 UV-I 313 W/m 14,1 C 24,6 C 0,0 km/h (0 Bft) 0,00 %
25.07.2015 11:10 24,7 C 53 % 1005,1 hPa 0,0 l/m 1,4 km/h (1 Bft) W-SW 256 0 min 0,000 mm 2,0 UV-I 334 W/m 14,5 C 24,7 C 4,0 km/h (1 Bft) 0,00 %
25.07.2015 11:15 24,6 C 53 % 1005,2 hPa 0,0 l/m 5,8 km/h (2 Bft) NW 305 0 min 0,000 mm 1,0 UV-I 348 W/m 14,4 C 24,6 C 7,9 km/h (2 Bft) 0,00 %
25.07.2015 11:20 24,6 C 52 % 1005,0 hPa 0,0 l/m 0,0 km/h (0 Bft) NO 37 0 min 0,000 mm 2,0 UV-I 360 W/m 14,1 C 24,6 C 0,0 km/h (0 Bft) 0,00 %
25.07.2015 11:25 24,7 C 51 % 1004,9 hPa 0,0 l/m 0,4 km/h (0 Bft) NO 41 0 min 0,000 mm 2,0 UV-I 371 W/m 13,9 C 24,7 C 4,0 km/h (1 Bft) 0,00 %
25.07.2015 11:30 24,8 C 52 % 1005,1 hPa 0,0 l/m 0,0 km/h (0 Bft) NO 36 0 min 0,000 mm 2,0 UV-I 402 W/m 14,3 C 24,8 C 0,0 km/h (0 Bft) 0,00 %
25.07.2015 11:35 24,8 C 50 % 1005,1 hPa 0,0 l/m 4,7 km/h (1 Bft) O-SO 112 0 min 0,000 mm 2,0 UV-I 421 W/m 13,7 C 24,8 C 7,9 km/h (2 Bft) 0,00 %
25.07.2015 11:40 24,8 C 49 % 1005,0 hPa 0,0 l/m 0,0 km/h (0 Bft) NO 41 0 min 0,000 mm 2,0 UV-I 445 W/m 13,3 C 24,8 C 0,0 km/h (0 Bft) 0,00 %
25.07.2015 11:45 25,0 C 50 % 1005,0 hPa 0,0 l/m 0,0 km/h (0 Bft) N-NO 13 0 min 0,000 mm 2,0 UV-I 405 W/m 13,8 C 25,0 C 0,0 km/h (0 Bft) 0,00 %
25.07.2015 11:50 25,1 C 48 % 1005,0 hPa 0,0 l/m 2,9 km/h (1 Bft) O-NO 73 0 min 0,000 mm 2,0 UV-I 372 W/m 13,3 C 25,1 C 7,9 km/h (2 Bft) 0,00 %
25.07.2015 11:55 25,3 C 47 % 1004,9 hPa 0,0 l/m 0,7 km/h (0 Bft) N 353 0 min 0,000 mm 2,0 UV-I 349 W/m 13,2 C 25,3 C 4,0 km/h (1 Bft) 0,00 %
25.07.2015 12:00 25,3 C 47 % 1004,9 hPa 0,0 l/m 2,2 km/h (1 Bft) N-NO 30 0 min 0,000 mm 2,0 UV-I 344 W/m 13,2 C 25,3 C 4,0 km/h (1 Bft) 0,00 %
25.07.2015 12:05 25,4 C 47 % 1004,9 hPa 0,0 l/m 9,7 km/h (2 Bft) NW 308 0 min 0,000 mm 2,0 UV-I 332 W/m 13,3 C 24,7 C 15,8 km/h (3 Bft) 0,00 %
25.07.2015 12:10 25,4 C 47 % 1005,0 hPa 0,0 l/m 4,0 km/h (1 Bft) N 353 0 min 0,000 mm 2,0 UV-I 315 W/m 13,3 C 25,4 C 7,9 km/h (2 Bft) 0,00 %
25.07.2015 12:15 25,3 C 48 % 1004,9 hPa 0,0 l/m 0,0 km/h (0 Bft) N-NW 346 0 min 0,000 mm 2,0 UV-I 297 W/m 13,5 C 25,3 C 0,0 km/h (0 Bft) 0,00 %
25.07.2015 12:20 25,3 C 47 % 1004,9 hPa 0,0 l/m 7,2 km/h (2 Bft) S-SW 211 0 min 0,000 mm 2,0 UV-I 296 W/m 13,2 C 25,1 C 11,9 km/h (2 Bft) 0,00 %
25.07.2015 12:25 25,4 C 49 % 1004,8 hPa 0,0 l/m 2,9 km/h (1 Bft) W-NW 299 0 min 0,000 mm 2,0 UV-I 315 W/m 13,9 C 25,4 C 4,0 km/h (1 Bft) 0,00 %
25.07.2015 12:30 25,4 C 49 % 1004,9 hPa 0,0 l/m 8,3 km/h (2 Bft) W-SW 245 0 min 0,000 mm 2,0 UV-I 366 W/m 13,9 C 25,0 C 11,9 km/h (2 Bft) 0,00 %
25.07.2015 12:35 25,4 C 49 % 1004,7 hPa 0,0 l/m 2,2 km/h (1 Bft) O-SO 120 0 min 0,000 mm 1,0 UV-I 361 W/m 13,9 C 25,4 C 4,0 km/h (1 Bft) 0,00 %
25.07.2015 12:40 25,3 C 48 % 1004,8 hPa 0,0 l/m 1,8 km/h (1 Bft) NW 319 0 min 0,000 mm 1,0 UV-I 401 W/m 13,5 C 25,3 C 4,0 km/h (1 Bft) 0,00 %
25.07.2015 12:45 25,3 C 49 % 1004,8 hPa 0,0 l/m 2,2 km/h (1 Bft) S 183 5 min 0,000 mm 1,0 UV-I 516 W/m 13,8 C 25,3 C 7,9 km/h (2 Bft) 0,00 %
25.07.2015 12:50 25,2 C 50 % 1005,1 hPa 0,0 l/m 0,4 km/h (0 Bft) N-NW 336 5 min 0,000 mm 2,0 UV-I 1189 W/m 14,0 C 25,2 C 4,0 km/h (1 Bft) 0,00 %
25.07.2015 12:55 25,2 C 49 % 1005,1 hPa 0,0 l/m 8,3 km/h (2 Bft) N 352 5 min 0,000 mm 2,0 UV-I 810 W/m 13,7 C 24,7 C 11,9 km/h (2 Bft) 0,00 %
25.07.2015 13:00 25,2 C 50 % 1005,0 hPa 0,0 l/m 0,4 km/h (0 Bft) NO 35 0 min 0,000 mm 2,0 UV-I 442 W/m 14,0 C 25,2 C 4,0 km/h (1 Bft) 0,00 %
25.07.2015 13:05 25,3 C 50 % 1004,8 hPa 0,0 l/m 1,8 km/h (1 Bft) W-SW 238 0 min 0,000 mm 2,0 UV-I 369 W/m 14,1 C 25,3 C 4,0 km/h (1 Bft) 0,00 %
25.07.2015 13:10 25,6 C 48 % 1005,0 hPa 0,0 l/m 0,0 km/h (0 Bft) NO 35 0 min 0,000 mm 3,0 UV-I 364 W/m 13,8 C 25,6 C 0,0 km/h (0 Bft) 0,00 %
25.07.2015 13:15 26,1 C 49 % 1004,6 hPa 0,0 l/m 0,4 km/h (0 Bft) N-NO 31 0 min 0,000 mm 6,0 UV-I 353 W/m 14,5 C 26,1 C 4,0 km/h (1 Bft) 0,00 %
25.07.2015 13:20 27,0 C 44 % 1004,6 hPa 0,0 l/m 0,0 km/h (0 Bft) N 356 0 min 0,000 mm 2,0 UV-I 326 W/m 13,7 C 27,0 C 0,0 km/h (0 Bft) 0,00 %
25.07.2015 13:25 27,6 C 45 % 1004,4 hPa 0,0 l/m 0,0 km/h (0 Bft) NW 322 0 min 0,000 mm 2,0 UV-I 359 W/m 14,6 C 27,6 C 0,0 km/h (0 Bft) 0,00 %
25.07.2015 13:30 27,4 C 46 % 1004,5 hPa 0,0 l/m 1,4 km/h (1 Bft) W-NW 300 0 min 0,000 mm 2,0 UV-I 413 W/m 14,7 C 27,4 C 4,0 km/h (1 Bft) 0,00 %
25.07.2015 13:35 27,1 C 47 % 1004,6 hPa 0,0 l/m 0,4 km/h (0 Bft) N 353 5 min 0,000 mm 2,0 UV-I 627 W/m 14,8 C 27,1 C 4,0 km/h (1 Bft) 0,00 %
25.07.2015 13:40 26,9 C 46 % 1004,5 hPa 0,0 l/m 0,0 km/h (0 Bft) N 353 5 min 0,000 mm 2,0 UV-I 615 W/m 14,3 C 26,9 C 0,0 km/h (0 Bft) 0,00 %
25.07.2015 13:45 26,9 C 48 % 1004,4 hPa 0,0 l/m 2,2 km/h (1 Bft) SW 216 5 min 0,000 mm 1,0 UV-I 904 W/m 14,9 C 26,9 C 7,9 km/h (2 Bft) 0,00 %
25.07.2015 13:50 26,8 C 48 % 1004,4 hPa 0,0 l/m 3,2 km/h (1 Bft) W-SW 255 5 min 0,000 mm 2,0 UV-I 1126 W/m 14,9 C 26,8 C 7,9 km/h (2 Bft) 0,00 %
25.07.2015 13:55 26,5 C 48 % 1004,6 hPa 0,0 l/m 3,2 km/h (1 Bft) N 349 5 min 0,000 mm 2,0 UV-I 666 W/m 14,6 C 26,5 C 4,0 km/h (1 Bft) 0,00 %
25.07.2015 14:00 26,5 C 47 % 1004,5 hPa 0,0 l/m 4,7 km/h (1 Bft) NW 320 5 min 0,000 mm 2,0 UV-I 665 W/m 14,3 C 26,5 C 7,9 km/h (2 Bft) 0,00 %
25.07.2015 14:05 26,8 C 45 % 1004,4 hPa 0,0 l/m 0,7 km/h (0 Bft) W-NW 287 5 min 0,000 mm 4,0 UV-I 621 W/m 13,9 C 26,8 C 4,0 km/h (1 Bft) 0,00 %
25.07.2015 14:10 27,3 C 46 % 1004,1 hPa 0,0 l/m 2,2 km/h (1 Bft) N-NW 340 5 min 0,000 mm 4,0 UV-I 908 W/m 14,6 C 27,3 C 4,0 km/h (1 Bft) 0,00 %
25.07.2015 14:15 27,9 C 43 % 1004,2 hPa 0,0 l/m 0,4 km/h (0 Bft) N-NW 343 5 min 0,000 mm 4,0 UV-I 1007 W/m 14,1 C 27,9 C 4,0 km/h (1 Bft) 0,00 %
25.07.2015 14:20 28,6 C 41 % 1004,2 hPa 0,0 l/m 0,0 km/h (0 Bft) O-NO 60 5 min 0,000 mm 3,0 UV-I 579 W/m 14,0 C 28,6 C 0,0 km/h (0 Bft) 0,00 %
25.07.2015 14:25 29,0 C 39 % 1004,1 hPa 0,0 l/m 0,0 km/h (0 Bft) W-NW 303 5 min 0,000 mm 3,0 UV-I 1054 W/m 13,6 C 29,0 C 0,0 km/h (0 Bft) 0,00 %
25.07.2015 14:30 29,2 C 40 % 1004,1 hPa 0,0 l/m 0,0 km/h (0 Bft) NO 42 5 min 0,000 mm 3,0 UV-I 854 W/m 14,2 C 29,2 C 0,0 km/h (0 Bft) 0,00 %
25.07.2015 14:35 29,1 C 41 % 1004,0 hPa 0,0 l/m 3,2 km/h (1 Bft) W-SW 251 5 min 0,000 mm 3,0 UV-I 872 W/m 14,5 C 29,1 C 4,0 km/h (1 Bft) 0,00 %
25.07.2015 14:40 28,8 C 41 % 1004,1 hPa 0,0 l/m 4,0 km/h (1 Bft) N 351 5 min 0,000 mm 5,0 UV-I 557 W/m 14,2 C 28,8 C 7,9 km/h (2 Bft) 0,00 %
25.07.2015 14:45 29,0 C 40 % 1004,0 hPa 0,0 l/m 0,0 km/h (0 Bft) NO 45 0 min 0,000 mm 4,0 UV-I 428 W/m 14,0 C 29,0 C 0,0 km/h (0 Bft) 0,00 %
25.07.2015 14:50 29,3 C 40 % 1003,9 hPa 0,0 l/m 0,4 km/h (0 Bft) NO 51 0 min 0,000 mm 4,0 UV-I 387 W/m 14,3 C 29,3 C 4,0 km/h (1 Bft) 0,00 %
25.07.2015 14:55 29,3 C 40 % 1004,0 hPa 0,0 l/m 1,8 km/h (1 Bft) N-NW 337 5 min 0,000 mm 4,0 UV-I 928 W/m 14,3 C 29,3 C 4,0 km/h (1 Bft) 0,00 %
25.07.2015 15:00 29,2 C 41 % 1003,9 hPa 0,0 l/m 0,0 km/h (0 Bft) NO 49 5 min 0,000 mm 4,0 UV-I 1019 W/m 14,6 C 29,2 C 0,0 km/h (0 Bft) 0,00 %
25.07.2015 15:05 28,8 C 41 % 1003,9 hPa 0,0 l/m 7,2 km/h (2 Bft) SW 232 5 min 0,000 mm 4,0 UV-I 831 W/m 14,2 C 28,7 C 11,9 km/h (2 Bft) 0,00 %
25.07.2015 15:10 28,4 C 42 % 1004,0 hPa 0,0 l/m 3,2 km/h (1 Bft) N-NW 330 5 min 0,000 mm 3,0 UV-I 484 W/m 14,2 C 28,4 C 7,9 km/h (2 Bft) 0,00 %
25.07.2015 15:15 28,4 C 41 % 1004,0 hPa 0,0 l/m 0,0 km/h (0 Bft) NO 46 5 min 0,000 mm 2,0 UV-I 1034 W/m 13,9 C 28,4 C 0,0 km/h (0 Bft) 0,00 %
25.07.2015 15:20 28,6 C 42 % 1004,0 hPa 0,0 l/m 0,4 km/h (0 Bft) O-NO 64 5 min 0,000 mm 2,0 UV-I 1052 W/m 14,4 C 28,6 C 4,0 km/h (1 Bft) 0,00 %
25.07.2015 15:25 28,4 C 42 % 1003,8 hPa 0,0 l/m 0,4 km/h (0 Bft) N 351 5 min 0,000 mm 4,0 UV-I 645 W/m 14,2 C 28,4 C 4,0 km/h (1 Bft) 0,00 %
25.07.2015 15:30 28,4 C 42 % 1003,8 hPa 0,0 l/m 7,2 km/h (2 Bft) W-NW 282 0 min 0,000 mm 4,0 UV-I 345 W/m 14,2 C 28,3 C 11,9 km/h (2 Bft) 0,00 %
25.07.2015 15:35 28,7 C 41 % 1003,7 hPa 0,0 l/m 6,8 km/h (2 Bft) NW 313 0 min 0,000 mm 4,0 UV-I 174 W/m 14,1 C 28,6 C 7,9 km/h (2 Bft) 0,00 %
25.07.2015 15:40 29,0 C 40 % 1003,6 hPa 0,0 l/m 4,0 km/h (1 Bft) W-NW 283 0 min 0,000 mm 3,0 UV-I 142 W/m 14,0 C 29,0 C 11,9 km/h (2 Bft) 0,00 %
25.07.2015 15:45 29,2 C 40 % 1003,5 hPa 0,0 l/m 0,0 km/h (0 Bft) O 85 0 min 0,000 mm 2,0 UV-I 93 W/m 14,2 C 29,2 C 0,0 km/h (0 Bft) 0,00 %
25.07.2015 15:50 29,2 C 43 % 1003,6 hPa 0,0 l/m 4,7 km/h (1 Bft) W-SW 256 0 min 0,000 mm 3,0 UV-I 78 W/m 15,3 C 29,2 C 7,9 km/h (2 Bft) 0,00 %
25.07.2015 15:55 29,0 C 42 % 1003,3 hPa 0,0 l/m 0,0 km/h (0 Bft) NO 37 0 min 0,000 mm 3,0 UV-I 58 W/m 14,8 C 29,0 C 0,0 km/h (0 Bft) 0,00 %
25.07.2015 16:00 29,3 C 40 % 1003,4 hPa 0,0 l/m 5,4 km/h (1 Bft) NW 305 0 min 0,000 mm 3,0 UV-I 57 W/m 14,3 C 29,3 C 7,9 km/h (2 Bft) 0,00 %
25.07.2015 16:05 29,5 C 41 % 1003,4 hPa 0,0 l/m 10,4 km/h (2 Bft) W-NW 294 0 min 0,000 mm 2,0 UV-I 66 W/m 14,8 C 29,1 C 11,9 km/h (2 Bft) 0,00 %
25.07.2015 16:10 28,8 C 42 % 1003,7 hPa 0,0 l/m 5,4 km/h (1 Bft) SW 235 0 min 0,000 mm 1,0 UV-I 78 W/m 14,6 C 28,8 C 7,9 km/h (2 Bft) 0,00 %
25.07.2015 16:15 27,8 C 43 % 1004,0 hPa 0,0 l/m 0,4 km/h (0 Bft) W-NW 286 0 min 0,000 mm 1,0 UV-I 87 W/m 14,1 C 27,8 C 4,0 km/h (1 Bft) 0,00 %
25.07.2015 16:20 27,2 C 43 % 1004,1 hPa 0,0 l/m 3,2 km/h (1 Bft) S 178 0 min 0,000 mm 1,0 UV-I 94 W/m 13,5 C 27,2 C 11,9 km/h (2 Bft) 0,00 %
25.07.2015 16:25 26,6 C 45 % 1004,3 hPa 0,0 l/m 0,4 km/h (0 Bft) N 7 0 min 0,000 mm 0,0 UV-I 81 W/m 13,7 C 26,6 C 4,0 km/h (1 Bft) 0,00 %
25.07.2015 16:30 26,1 C 47 % 1004,4 hPa 0,0 l/m 3,2 km/h (1 Bft) W-NW 283 0 min 0,000 mm 0,0 UV-I 68 W/m 13,9 C 26,1 C 7,9 km/h (2 Bft) 0,00 %
25.07.2015 16:35 25,6 C 51 % 1004,6 hPa 0,0 l/m 5,8 km/h (2 Bft) SO 127 0 min 0,000 mm 0,0 UV-I 55 W/m 14,7 C 25,6 C 7,9 km/h (2 Bft) 0,00 %
25.07.2015 16:40 24,9 C 53 % 1004,8 hPa 0,0 l/m 1,4 km/h (1 Bft) N 354 0 min 0,000 mm 0,0 UV-I 39 W/m 14,6 C 24,9 C 4,0 km/h (1 Bft) 0,00 %
25.07.2015 16:45 24,4 C 59 % 1005,1 hPa 0,0 l/m 0,7 km/h (0 Bft) NW 310 0 min 0,000 mm 1,0 UV-I 21 W/m 15,9 C 24,4 C 4,0 km/h (1 Bft) 0,00 %
25.07.2015 16:50 23,9 C 66 % 1005,1 hPa 0,0 l/m 3,2 km/h (1 Bft) N-NW 330 0 min 0,000 mm 0,0 UV-I 17 W/m 17,1 C 23,9 C 4,0 km/h (1 Bft) 0,00 %
25.07.2015 16:55 23,1 C 74 % 1005,2 hPa 0,3 l/m 4,7 km/h (1 Bft) W-SW 256 0 min 0,000 mm 0,0 UV-I 16 W/m 18,2 C 23,1 C 7,9 km/h (2 Bft) 0,00 %
25.07.2015 17:00 21,8 C 80 % 1005,8 hPa 0,3 l/m 1,8 km/h (1 Bft) N 351 0 min 0,000 mm 1,0 UV-I 19 W/m 18,2 C 21,8 C 4,0 km/h (1 Bft) 0,00 %
25.07.2015 17:05 20,9 C 84 % 1006,2 hPa 0,3 l/m 0,7 km/h (0 Bft) N 350 0 min 0,000 mm 1,0 UV-I 10 W/m 18,1 C 20,9 C 4,0 km/h (1 Bft) 0,00 %
25.07.2015 17:10 20,2 C 84 % 1006,2 hPa 0,0 l/m 9,7 km/h (2 Bft) W-SW 257 0 min 0,000 mm 0,0 UV-I 17 W/m 17,4 C 19,0 C 15,8 km/h (3 Bft) 0,00 %
25.07.2015 17:15 19,9 C 85 % 1006,4 hPa 0,0 l/m 0,4 km/h (0 Bft) SO 143 0 min 0,000 mm 0,0 UV-I 24 W/m 17,3 C 19,9 C 4,0 km/h (1 Bft) 0,00 %
25.07.2015 17:20 19,6 C 84 % 1006,4 hPa 0,0 l/m 0,4 km/h (0 Bft) NO 37 0 min 0,000 mm 0,0 UV-I 22 W/m 16,8 C 19,6 C 4,0 km/h (1 Bft) 0,00 %
25.07.2015 17:25 19,5 C 83 % 1006,4 hPa 0,0 l/m 0,0 km/h (0 Bft) NO 54 0 min 0,000 mm 0,0 UV-I 17 W/m 16,5 C 19,5 C 0,0 km/h (0 Bft) 0,00 %
25.07.2015 17:30 19,4 C 82 % 1006,7 hPa 0,0 l/m 5,4 km/h (1 Bft) N-NW 335 0 min 0,000 mm 0,0 UV-I 16 W/m 16,2 C 19,4 C 7,9 km/h (2 Bft) 0,00 %
25.07.2015 17:35 19,4 C 82 % 1006,8 hPa 0,0 l/m 5,4 km/h (1 Bft) NW 321 0 min 0,000 mm 0,0 UV-I 25 W/m 16,2 C 19,4 C 7,9 km/h (2 Bft) 0,00 %
25.07.2015 17:40 19,3 C 81 % 1006,9 hPa 0,0 l/m 1,4 km/h (1 Bft) W-SW 256 0 min 0,000 mm 0,0 UV-I 35 W/m 16,0 C 19,3 C 4,0 km/h (1 Bft) 0,00 %
25.07.2015 17:45 19,2 C 85 % 1007,1 hPa 0,3 l/m 8,3 km/h (2 Bft) W-NW 301 0 min 0,000 mm 0,0 UV-I 34 W/m 16,6 C 18,4 C 11,9 km/h (2 Bft) 0,00 %
25.07.2015 17:50 18,7 C 88 % 1007,6 hPa 0,6 l/m 4,7 km/h (1 Bft) W-NW 286 0 min 0,000 mm 0,0 UV-I 28 W/m 16,7 C 18,7 C 7,9 km/h (2 Bft) 0,00 %
25.07.2015 17:55 18,3 C 91 % 1007,6 hPa 0,3 l/m 3,2 km/h (1 Bft) N 353 0 min 0,000 mm 0,0 UV-I 22 W/m 16,8 C 18,3 C 7,9 km/h (2 Bft) 0,00 %
25.07.2015 18:00 18,1 C 92 % 1007,7 hPa 0,0 l/m 1,4 km/h (1 Bft) W-SW 253 0 min 0,000 mm 0,0 UV-I 10 W/m 16,8 C 18,1 C 4,0 km/h (1 Bft) 0,00 %
25.07.2015 18:05 18,0 C 92 % 1007,8 hPa 0,0 l/m 0,0 km/h (0 Bft) N-NO 30 0 min 0,000 mm 0,0 UV-I 21 W/m 16,7 C 18,0 C 0,0 km/h (0 Bft) 0,00 %
25.07.2015 18:10 18,0 C 93 % 1008,0 hPa 0,0 l/m 3,2 km/h (1 Bft) W-SW 254 0 min 0,000 mm 0,0 UV-I 21 W/m 16,8 C 18,0 C 4,0 km/h (1 Bft) 0,00 %
25.07.2015 18:15 18,0 C 93 % 1008,1 hPa 0,3 l/m 0,0 km/h (0 Bft) N-NW 336 0 min 0,000 mm 0,0 UV-I 11 W/m 16,8 C 18,0 C 0,0 km/h (0 Bft) 0,00 %
25.07.2015 18:20 18,0 C 93 % 1008,3 hPa 0,0 l/m 0,7 km/h (0 Bft) N 351 0 min 0,000 mm 0,0 UV-I 19 W/m 16,8 C 18,0 C 4,0 km/h (1 Bft) 0,00 %
25.07.2015 18:25 18,0 C 93 % 1008,3 hPa 0,0 l/m 0,7 km/h (0 Bft) N-NO 18 0 min 0,000 mm 0,0 UV-I 35 W/m 16,8 C 18,0 C 4,0 km/h (1 Bft) 0,00 %
25.07.2015 18:30 17,9 C 94 % 1008,5 hPa 0,0 l/m 1,4 km/h (1 Bft) W-SW 256 0 min 0,000 mm 0,0 UV-I 44 W/m 16,9 C 17,9 C 4,0 km/h (1 Bft) 0,00 %
25.07.2015 18:35 17,9 C 94 % 1008,6 hPa 0,3 l/m 0,7 km/h (0 Bft) O-NO 78 0 min 0,000 mm 0,0 UV-I 36 W/m 16,9 C 17,9 C 4,0 km/h (1 Bft) 0,00 %
25.07.2015 18:40 17,8 C 93 % 1008,9 hPa 0,0 l/m 0,4 km/h (0 Bft) N-NO 23 0 min 0,000 mm 0,0 UV-I 25 W/m 16,7 C 17,8 C 4,0 km/h (1 Bft) 0,00 %
25.07.2015 18:45 17,7 C 93 % 1009,0 hPa 0,3 l/m 0,7 km/h (0 Bft) N-NW 345 0 min 0,000 mm 0,0 UV-I 17 W/m 16,6 C 17,7 C 4,0 km/h (1 Bft) 0,00 %
25.07.2015 18:50 17,7 C 94 % 1009,2 hPa 0,0 l/m 2,9 km/h (1 Bft) S-SW 205 0 min 0,000 mm 0,0 UV-I 5 W/m 16,7 C 17,7 C 7,9 km/h (2 Bft) 0,00 %
25.07.2015 18:55 17,7 C 94 % 1009,3 hPa 0,3 l/m 0,7 km/h (0 Bft) W-NW 289 0 min 0,000 mm 0,0 UV-I 2 W/m 16,7 C 17,7 C 4,0 km/h (1 Bft) 0,00 %
25.07.2015 19:00 17,6 C 94 % 1009,4 hPa 0,0 l/m 0,0 km/h (0 Bft) O-NO 75 0 min 0,000 mm 0,0 UV-I 1 W/m 16,6 C 17,6 C 0,0 km/h (0 Bft) 0,00 %
25.07.2015 19:05 17,6 C 94 % 1009,5 hPa 0,3 l/m 7,2 km/h (2 Bft) S 173 0 min 0,000 mm 0,0 UV-I 1 W/m 16,6 C 17,2 C 11,9 km/h (2 Bft) 0,00 %
25.07.2015 19:10 17,5 C 93 % 1009,7 hPa 0,3 l/m 5,4 km/h (1 Bft) O-NO 74 0 min 0,000 mm 0,0 UV-I 4 W/m 16,4 C 17,5 C 11,9 km/h (2 Bft) 0,00 %
25.07.2015 19:15 17,4 C 93 % 1009,7 hPa 0,3 l/m 1,8 km/h (1 Bft) N-NO 26 0 min 0,000 mm 0,0 UV-I 3 W/m 16,3 C 17,4 C 4,0 km/h (1 Bft) 0,00 %
25.07.2015 19:20 17,3 C 93 % 1009,9 hPa 0,3 l/m 2,9 km/h (1 Bft) NW 308 0 min 0,000 mm 0,0 UV-I 1 W/m 16,2 C 17,3 C 4,0 km/h (1 Bft) 0,00 %
25.07.2015 19:25 17,2 C 93 % 1010,0 hPa 0,3 l/m 1,8 km/h (1 Bft) W-NW 303 0 min 0,000 mm 0,0 UV-I 0 W/m 16,1 C 17,2 C 4,0 km/h (1 Bft) 0,00 %
25.07.2015 19:30 17,1 C 93 % 1009,9 hPa 0,3 l/m 0,0 km/h (0 Bft) N-NO 33 0 min 0,000 mm 0,0 UV-I 0 W/m 16,0 C 17,1 C 0,0 km/h (0 Bft) 0,00 %
25.07.2015 19:35 17,0 C 93 % 1010,2 hPa 0,0 l/m 5,8 km/h (2 Bft) N-NW 346 0 min 0,000 mm 0,0 UV-I 0 W/m 15,9 C 17,0 C 7,9 km/h (2 Bft) 0,00 %
25.07.2015 19:40 16,9 C 91 % 1010,1 hPa 0,3 l/m 6,8 km/h (2 Bft) N 11 0 min 0,000 mm 0,0 UV-I 0 W/m 15,4 C 16,7 C 15,8 km/h (3 Bft) 0,00 %
25.07.2015 19:45 16,8 C 90 % 1010,4 hPa 0,3 l/m 6,8 km/h (2 Bft) W-NW 287 0 min 0,000 mm 0,0 UV-I 0 W/m 15,1 C 16,6 C 11,9 km/h (2 Bft) 0,00 %
25.07.2015 19:50 16,5 C 89 % 1010,4 hPa 0,0 l/m 7,9 km/h (2 Bft) SO 139 0 min 0,000 mm 0,0 UV-I 0 W/m 14,7 C 15,7 C 11,9 km/h (2 Bft) 0,00 %
25.07.2015 19:55 16,3 C 89 % 1010,7 hPa 0,3 l/m 2,2 km/h (1 Bft) N 10 0 min 0,000 mm 0,0 UV-I 0 W/m 14,5 C 16,3 C 4,0 km/h (1 Bft) 0,00 %
25.07.2015 20:00 16,1 C 90 % 1010,7 hPa 0,0 l/m 5,8 km/h (2 Bft) W-SW 256 0 min 0,000 mm 0,0 UV-I 0 W/m 14,5 C 16,1 C 7,9 km/h (2 Bft) 0,00 %
25.07.2015 20:05 16,0 C 90 % 1011,1 hPa 0,0 l/m 3,2 km/h (1 Bft) O-NO 71 0 min 0,000 mm 0,0 UV-I 0 W/m 14,4 C 16,0 C 4,0 km/h (1 Bft) 0,00 %
25.07.2015 20:10 15,9 C 91 % 1011,0 hPa 0,3 l/m 4,0 km/h (1 Bft) O-NO 72 0 min 0,000 mm 0,0 UV-I 0 W/m 14,4 C 15,9 C 7,9 km/h (2 Bft) 0,00 %
25.07.2015 20:15 15,9 C 91 % 1011,0 hPa 0,0 l/m 6,8 km/h (2 Bft) W-SW 251 0 min 0,000 mm 0,0 UV-I 0 W/m 14,4 C 15,7 C 15,8 km/h (3 Bft) 0,00 %
25.07.2015 20:20 15,8 C 91 % 1010,9 hPa 0,0 l/m 10,4 km/h (2 Bft) W 271 0 min 0,000 mm 0,0 UV-I 0 W/m 14,3 C 13,8 C 15,8 km/h (3 Bft) 0,00 %
25.07.2015 20:25 15,7 C 90 % 1011,2 hPa 0,0 l/m 4,3 km/h (1 Bft) SW 225 0 min 0,000 mm 0,0 UV-I 0 W/m 14,1 C 15,7 C 7,9 km/h (2 Bft) 0,00 %
25.07.2015 20:30 15,7 C 90 % 1011,1 hPa 0,0 l/m 0,0 km/h (0 Bft) N 357 0 min 0,000 mm 0,0 UV-I 0 W/m 14,1 C 15,7 C 0,0 km/h (0 Bft) 0,00 %
25.07.2015 20:35 15,7 C 90 % 1011,3 hPa 0,0 l/m 0,4 km/h (0 Bft) NO 38 0 min 0,000 mm 0,0 UV-I 0 W/m 14,1 C 15,7 C 4,0 km/h (1 Bft) 0,00 %
25.07.2015 20:40 15,7 C 90 % 1011,4 hPa 0,3 l/m 0,0 km/h (0 Bft) N-NO 32 0 min 0,000 mm 0,0 UV-I 0 W/m 14,1 C 15,7 C 0,0 km/h (0 Bft) 0,00 %
25.07.2015 20:45 15,7 C 91 % 1011,3 hPa 0,0 l/m 0,0 km/h (0 Bft) NO 45 0 min 0,000 mm 0,0 UV-I 0 W/m 14,2 C 15,7 C 0,0 km/h (0 Bft) 0,00 %
25.07.2015 20:50 15,7 C 91 % 1011,6 hPa 0,0 l/m 1,8 km/h (1 Bft) O-SO 118 0 min 0,000 mm 0,0 UV-I 0 W/m 14,2 C 15,7 C 4,0 km/h (1 Bft) 0,00 %
25.07.2015 20:55 15,7 C 90 % 1011,6 hPa 0,0 l/m 0,7 km/h (0 Bft) NW 311 0 min 0,000 mm 0,0 UV-I 0 W/m 14,1 C 15,7 C 4,0 km/h (1 Bft) 0,00 %
25.07.2015 21:00 15,7 C 90 % 1011,6 hPa 0,0 l/m 1,8 km/h (1 Bft) NO 47 0 min 0,000 mm 0,0 UV-I 0 W/m 14,1 C 15,7 C 4,0 km/h (1 Bft) 0,00 %
25.07.2015 21:05 15,7 C 89 % 1011,7 hPa 0,0 l/m 0,4 km/h (0 Bft) W-NW 290 0 min 0,000 mm 0,0 UV-I 0 W/m 13,9 C 15,7 C 4,0 km/h (1 Bft) 0,00 %
25.07.2015 21:10 15,7 C 87 % 1011,9 hPa 0,0 l/m 1,4 km/h (1 Bft) N 351 0 min 0,000 mm 0,0 UV-I 0 W/m 13,5 C 15,7 C 4,0 km/h (1 Bft) 0,00 %
25.07.2015 21:15 15,7 C 86 % 1012,0 hPa 0,0 l/m 0,4 km/h (0 Bft) NO 48 0 min 0,000 mm 0,0 UV-I 0 W/m 13,4 C 15,7 C 4,0 km/h (1 Bft) 0,00 %
25.07.2015 21:20 15,8 C 85 % 1012,2 hPa 0,0 l/m 1,8 km/h (1 Bft) N 350 0 min 0,000 mm 0,0 UV-I 0 W/m 13,3 C 15,8 C 4,0 km/h (1 Bft) 0,00 %
25.07.2015 21:25 15,8 C 83 % 1012,3 hPa 0,0 l/m 1,8 km/h (1 Bft) NO 48 0 min 0,000 mm 0,0 UV-I 0 W/m 12,9 C 15,8 C 4,0 km/h (1 Bft) 0,00 %
25.07.2015 21:30 15,8 C 83 % 1012,5 hPa 0,0 l/m 5,4 km/h (1 Bft) S-SO 151 0 min 0,000 mm 0,0 UV-I 0 W/m 12,9 C 15,8 C 7,9 km/h (2 Bft) 0,00 %
25.07.2015 21:35 15,8 C 83 % 1012,6 hPa 0,0 l/m 1,4 km/h (1 Bft) NW 326 0 min 0,000 mm 0,0 UV-I 0 W/m 12,9 C 15,8 C 4,0 km/h (1 Bft) 0,00 %
25.07.2015 21:40 15,8 C 82 % 1012,5 hPa 0,0 l/m 7,9 km/h (2 Bft) N-NW 345 0 min 0,000 mm 0,0 UV-I 0 W/m 12,7 C 15,0 C 11,9 km/h (2 Bft) 0,00 %
25.07.2015 21:45 15,8 C 83 % 1012,6 hPa 0,0 l/m 0,4 km/h (0 Bft) N-NW 330 0 min 0,000 mm 0,0 UV-I 0 W/m 12,9 C 15,8 C 4,0 km/h (1 Bft) 0,00 %
25.07.2015 21:50 15,7 C 83 % 1012,8 hPa 0,0 l/m 0,7 km/h (0 Bft) NO 50 0 min 0,000 mm 0,0 UV-I 0 W/m 12,8 C 15,7 C 4,0 km/h (1 Bft) 0,00 %
25.07.2015 21:55 15,7 C 84 % 1012,7 hPa 0,0 l/m 1,4 km/h (1 Bft) N 357 0 min 0,000 mm 0,0 UV-I 0 W/m 13,0 C 15,7 C 4,0 km/h (1 Bft) 0,00 %
25.07.2015 22:00 15,6 C 84 % 1012,6 hPa 0,0 l/m 0,7 km/h (0 Bft) O-SO 111 0 min 0,000 mm 0,0 UV-I 0 W/m 12,9 C 15,6 C 4,0 km/h (1 Bft) 0,00 %
25.07.2015 22:05 15,6 C 84 % 1013,0 hPa 0,0 l/m 0,4 km/h (0 Bft) S 184 0 min 0,000 mm 0,0 UV-I 0 W/m 12,9 C 15,6 C 4,0 km/h (1 Bft) 0,00 %
25.07.2015 22:10 15,6 C 84 % 1013,0 hPa 0,0 l/m 3,2 km/h (1 Bft) W-SW 256 0 min 0,000 mm 0,0 UV-I 0 W/m 12,9 C 15,6 C 7,9 km/h (2 Bft) 0,00 %
25.07.2015 22:15 15,6 C 83 % 1013,0 hPa 0,0 l/m 0,0 km/h (0 Bft) N 353 0 min 0,000 mm 0,0 UV-I 0 W/m 12,7 C 15,6 C 0,0 km/h (0 Bft) 0,00 %
25.07.2015 22:20 15,6 C 83 % 1013,0 hPa 0,0 l/m 1,8 km/h (1 Bft) N-NW 337 0 min 0,000 mm 0,0 UV-I 0 W/m 12,7 C 15,6 C 4,0 km/h (1 Bft) 0,00 %
25.07.2015 22:25 15,6 C 84 % 1013,2 hPa 0,0 l/m 0,0 km/h (0 Bft) NO 38 0 min 0,000 mm 0,0 UV-I 0 W/m 12,9 C 15,6 C 0,0 km/h (0 Bft) 0,00 %
25.07.2015 22:30 15,5 C 84 % 1013,2 hPa 0,0 l/m 0,7 km/h (0 Bft) N 355 0 min 0,000 mm 0,0 UV-I 0 W/m 12,8 C 15,5 C 4,0 km/h (1 Bft) 0,00 %
25.07.2015 22:35 15,5 C 84 % 1013,5 hPa 0,0 l/m 0,0 km/h (0 Bft) N 356 0 min 0,000 mm 0,0 UV-I 0 W/m 12,8 C 15,5 C 0,0 km/h (0 Bft) 0,00 %
25.07.2015 22:40 15,5 C 83 % 1013,4 hPa 0,0 l/m 0,7 km/h (0 Bft) NO 46 0 min 0,000 mm 0,0 UV-I 0 W/m 12,6 C 15,5 C 4,0 km/h (1 Bft) 0,00 %
25.07.2015 22:45 15,5 C 83 % 1013,5 hPa 0,0 l/m 2,2 km/h (1 Bft) NW 322 0 min 0,000 mm 0,0 UV-I 0 W/m 12,6 C 15,5 C 7,9 km/h (2 Bft) 0,00 %
25.07.2015 22:50 15,5 C 83 % 1013,6 hPa 0,0 l/m 0,4 km/h (0 Bft) N-NO 29 0 min 0,000 mm 0,0 UV-I 0 W/m 12,6 C 15,5 C 4,0 km/h (1 Bft) 0,00 %
25.07.2015 22:55 15,6 C 84 % 1013,7 hPa 0,0 l/m 2,2 km/h (1 Bft) NO 41 0 min 0,000 mm 0,0 UV-I 0 W/m 12,9 C 15,6 C 4,0 km/h (1 Bft) 0,00 %
25.07.2015 23:00 15,5 C 85 % 1013,7 hPa 0,0 l/m 0,0 km/h (0 Bft) N-NO 20 0 min 0,000 mm 0,0 UV-I 0 W/m 13,0 C 15,5 C 0,0 km/h (0 Bft) 0,00 %
25.07.2015 23:05 15,4 C 85 % 1014,0 hPa 0,0 l/m 0,4 km/h (0 Bft) NO 35 0 min 0,000 mm 0,0 UV-I 0 W/m 12,9 C 15,4 C 4,0 km/h (1 Bft) 0,00 %
25.07.2015 23:10 15,3 C 85 % 1014,0 hPa 0,0 l/m 4,7 km/h (1 Bft) W-SW 256 0 min 0,000 mm 0,0 UV-I 0 W/m 12,8 C 15,3 C 11,9 km/h (2 Bft) 0,00 %
25.07.2015 23:15 15,3 C 85 % 1014,3 hPa 0,0 l/m 0,0 km/h (0 Bft) N-NO 28 0 min 0,000 mm 0,0 UV-I 0 W/m 12,8 C 15,3 C 0,0 km/h (0 Bft) 0,00 %
25.07.2015 23:20 15,3 C 85 % 1014,6 hPa 0,0 l/m 9,7 km/h (2 Bft) W 260 0 min 0,000 mm 0,0 UV-I 0 W/m 12,8 C 13,6 C 11,9 km/h (2 Bft) 0,00 %
25.07.2015 23:25 15,3 C 86 % 1014,5 hPa 0,0 l/m 0,4 km/h (0 Bft) N-NO 17 0 min 0,000 mm 0,0 UV-I 0 W/m 13,0 C 15,3 C 4,0 km/h (1 Bft) 0,00 %
25.07.2015 23:30 15,2 C 85 % 1014,8 hPa 0,0 l/m 0,4 km/h (0 Bft) N 357 0 min 0,000 mm 0,0 UV-I 0 W/m 12,7 C 15,2 C 4,0 km/h (1 Bft) 0,00 %
25.07.2015 23:35 15,2 C 83 % 1014,6 hPa 0,0 l/m 0,4 km/h (0 Bft) NO 53 0 min 0,000 mm 0,0 UV-I 0 W/m 12,3 C 15,2 C 4,0 km/h (1 Bft) 0,00 %
25.07.2015 23:40 15,2 C 83 % 1014,5 hPa 0,0 l/m 1,8 km/h (1 Bft) N 358 0 min 0,000 mm 0,0 UV-I 0 W/m 12,3 C 15,2 C 7,9 km/h (2 Bft) 0,00 %
25.07.2015 23:45 15,3 C 82 % 1014,6 hPa 0,0 l/m 3,2 km/h (1 Bft) W-NW 293 0 min 0,000 mm 0,0 UV-I 0 W/m 12,2 C 15,3 C 4,0 km/h (1 Bft) 0,00 %
25.07.2015 23:50 15,2 C 80 % 1014,6 hPa 0,0 l/m 0,0 km/h (0 Bft) NO 38 0 min 0,000 mm 0,0 UV-I 0 W/m 11,8 C 15,2 C 0,0 km/h (0 Bft) 0,00 %
25.07.2015 23:55 15,1 C 79 % 1014,6 hPa 0,0 l/m 0,0 km/h (0 Bft) N-NW 336 0 min 0,000 mm 0,0 UV-I 0 W/m 11,5 C 15,1 C 0,0 km/h (0 Bft) 0,00 %
_ Min-Zeit 23:55 14:25 02:45 - 00:00 - - - - - - 23:55 23:20 00:00 00:00
Minimum _ 15,1 C 39 % 1001,8 hPa - 0,0 km/h (0 Bft) - - - - - - 11,5 C 13,6 C 0,0 km/h (0 Bft) 0,00 %
_ Max-Zeit 16:05 18:30 23:30 17:50 03:25 - - 12:45 00:00 13:15 12:50 16:55 14:50 03:25 00:00
Maximum _ 29,5 C 94 % 1014,8 hPa 0,6 l/m 13,3 km/h
W-SW (3 Bft)
- - 5 min 0,000 mm 6,0 UV-I 1189 W/m 18,2 C 29,3 C 15,8 km/h
W-SW (3 Bft)
0,00 %
Durchschnitt _ 21,3 C 69 % 1006,1 hPa #6,6 l/m 1,7 km/h (1 Bft) W-SW - #2:00 h #0,000 mm 1,9 UV-I 260 W/m 14,9 C 21,3 C 3,7 km/h (1 Bft) 0,00 %